Simultaneous Nadir Overpasses (SNOs) Predictions

Prediction of SNOs between METOP-C and LANDSAT-8 Satellite Orbit:

Table of predicted SNOs for the next 14.0 days since TLE Epoch: 3/20/2021
Index Date (METOP-C) Time (METOP-C) Lat,Lon (METOP-C) SZA (METOP-C ) Date (LANDSAT-8) Time (LANDSAT-8) Lat,Lon (LANDSAT-8) SZA (LANDSAT-8 ) Distance(km) Time Diff (sec)
1 03/20/2021 23:34:26 -81.05, 44.50 97.48 03/20/2021 23:35:25 -81.05, 44.61 97.45 1.94 59
2 03/21/2021 00:25:04 81.09,-147.18 82.64 03/21/2021 00:24:50 81.08,-147.29 82.61 2.11 14
3 03/23/2021 19:08:47 -81.07, 111.30 98.51 03/23/2021 19:09:39 -81.07, 111.35 98.49 1.00 52
4 03/23/2021 19:59:26 81.09, -80.72 81.56 03/23/2021 19:59:04 81.10, -80.58 81.57 2.67 22
5 03/26/2021 14:43:08 -81.07, 177.73 99.59 03/26/2021 14:43:53 -81.07, 177.70 99.58 0.46 45
6 03/26/2021 15:33:47 81.09, -14.27 80.48 03/26/2021 15:33:18 81.09, -14.26 80.47 0.24 29
7 03/29/2021 10:17:29 -81.08,-115.49 100.62 03/29/2021 10:18:07 -81.08,-115.63 100.62 2.34 38
8 03/29/2021 11:08:08 81.11, 52.54 79.46 03/29/2021 11:07:32 81.11, 52.38 79.43 2.64 36
9 04/01/2021 05:51:52 -81.07, -49.46 101.73 04/01/2021 05:52:22 -81.07, -49.35 101.71 1.92 30



Historial Predications of SNOs between METOP-C and LANDSAT-8
